Location: Calvatone
(45.1167°N, 10.4333°E)
Time: 11:45:19
(UTC+00:00)

CZ-4 R/B - Pass Details

Date: 28 January 2023
Orbit: 526 x 587 km, 97.7° (Epoch: 25 March)

Event Time Altitude Azimuth Distance (km) Brightness Sun altitude
Rises 18:10:10 0° 159° (SSE) 2,811 4.8 -19.5°
Reaches altitude 10° 18:12:20 10° 157° (SSE) 1,913 3.9 -19.9°
Maximum altitude 18:16:27 69° 75° (ENE) 633 1.3 -20.6°
Drops below altitude 10° 18:20:35 10° 352° (N) 1,908 4.1 -21.3°
Sets 18:22:44 0° 350° (N) 2,804 5.0 -21.7°
